Time,TemperatureF,DewpointF,PressureIn,WindDirection,WindDirectionDegrees,WindSpeedMPH,WindSpeedGustMPH,Humidity,HourlyPrecipIn,Conditions,Clouds,dailyrainin,SolarRadiationWatts/m^2,SoftwareType,DateUTC
2013-01-13 00:03:00,21.7,12.0,29.98,North,360,5.0,6.0,66,0.00,,,0.00,0,Custom,2013-01-13 06:03:00,
2013-01-13 00:08:00,21.6,12.0,29.98,North,360,0.0,6.0,67,0.00,,,0.00,0,Custom,2013-01-13 06:08:00,
2013-01-13 00:13:00,21.4,12.0,29.97,North,349,1.0,5.0,67,0.00,,,0.00,0,Custom,2013-01-13 06:13:00,
2013-01-13 00:18:00,21.1,12.0,29.97,NNE,15,0.0,5.0,67,0.00,,,0.00,0,Custom,2013-01-13 06:18:00,
2013-01-13 00:23:00,21.1,12.0,29.96,North,359,2.0,5.0,68,0.00,,,0.00,0,Custom,2013-01-13 06:23:00,
2013-01-13 00:28:00,20.9,12.0,29.96,North,359,0.0,8.0,68,0.00,,,0.00,0,Custom,2013-01-13 06:28:00,
2013-01-13 00:33:00,20.6,12.0,29.97,North,9,0.0,5.0,68,0.00,,,0.00,0,Custom,2013-01-13 06:33:00,
2013-01-13 00:38:00,20.6,12.0,29.96,North,358,0.0,8.0,68,0.00,,,0.00,0,Custom,2013-01-13 06:38:00,
2013-01-13 00:43:00,20.4,12.0,29.97,NNW,347,0.0,4.0,68,0.00,,,0.00,0,Custom,2013-01-13 06:43:00,
2013-01-13 00:48:00,20.3,12.0,29.98,North,359,0.0,5.0,69,0.00,,,0.00,0,Custom,2013-01-13 06:48:00,
2013-01-13 00:53:00,20.1,11.0,29.99,NNW,342,0.0,4.0,69,0.00,,,0.00,0,Custom,2013-01-13 06:53:00,
2013-01-13 00:58:00,20.1,12.0,29.99,North,0,4.0,4.0,70,0.00,,,0.00,0,Custom,2013-01-13 06:58:00,
2013-01-13 01:03:00,20.0,12.0,30.00,NNW,343,3.0,3.0,70,0.00,,,0.00,0,Custom,2013-01-13 07:03:00,
2013-01-13 01:08:00,19.8,11.0,30.01,NE,39,0.0,3.0,70,0.00,,,0.00,0,Custom,2013-01-13 07:08:00,
2013-01-13 01:13:00,19.9,12.0,30.01,West,270,0.0,4.0,70,0.00,,,0.00,0,Custom,2013-01-13 07:13:00,
2013-01-13 01:18:00,19.9,11.0,30.00,NNW,328,2.0,4.0,69,0.00,,,0.00,0,Custom,2013-01-13 07:18:00,
2013-01-13 01:23:00,19.7,11.0,30.01,North,360,3.0,5.0,69,0.00,,,0.00,0,Custom,2013-01-13 07:23:00,
2013-01-13 01:28:00,19.7,11.0,30.02,WNW,290,2.0,6.0,70,0.00,,,0.00,0,Custom,2013-01-13 07:28:00,
2013-01-13 01:33:00,19.7,11.0,30.01,NNW,344,0.0,2.0,69,0.00,,,0.00,0,Custom,2013-01-13 07:33:00,
2013-01-13 01:38:00,19.5,11.0,30.02,NW,324,0.0,4.0,69,0.00,,,0.00,0,Custom,2013-01-13 07:38:00,
2013-01-13 01:43:00,19.5,11.0,30.02,North,360,2.0,3.0,70,0.00,,,0.00,0,Custom,2013-01-13 07:43:00,
2013-01-13 01:48:00,19.5,11.0,30.02,NNE,13,0.0,3.0,70,0.00,,,0.00,0,Custom,2013-01-13 07:48:00,
2013-01-13 01:53:00,19.5,11.0,30.05,North,359,0.0,4.0,69,0.00,,,0.00,0,Custom,2013-01-13 07:53:00,
2013-01-13 01:58:00,19.5,11.0,30.03,NNW,342,0.0,3.0,69,0.00,,,0.00,0,Custom,2013-01-13 07:58:00,
2013-01-13 02:03:00,19.3,11.0,30.02,North,0,4.0,4.0,69,0.00,,,0.00,0,Custom,2013-01-13 08:03:00,
2013-01-13 02:08:00,19.0,11.0,30.03,ENE,57,0.0,3.0,70,0.00,,,0.00,0,Custom,2013-01-13 08:08:00,
2013-01-13 02:13:00,18.7,11.0,30.03,North,0,0.0,4.0,70,0.00,,,0.00,0,Custom,2013-01-13 08:13:00,
2013-01-13 02:18:00,18.4,10.0,30.03,NNE,13,0.0,1.0,70,0.00,,,0.00,0,Custom,2013-01-13 08:18:00,
2013-01-13 02:23:00,18.3,10.0,30.02,NW,317,0.0,5.0,71,0.00,,,0.00,0,Custom,2013-01-13 08:23:00,
2013-01-13 02:28:00,18.1,10.0,30.01,North,356,0.0,4.0,71,0.00,,,0.00,0,Custom,2013-01-13 08:28:00,
2013-01-13 02:33:00,17.8,10.0,30.03,North,356,0.0,1.0,71,0.00,,,0.00,0,Custom,2013-01-13 08:33:00,
2013-01-13 02:38:00,17.7,10.0,30.03,North,352,0.0,3.0,72,0.00,,,0.00,0,Custom,2013-01-13 08:38:00,
2013-01-13 02:43:00,17.8,10.0,30.03,North,0,0.0,5.0,72,0.00,,,0.00,0,Custom,2013-01-13 08:43:00,
2013-01-13 02:48:00,17.6,10.0,30.05,North,0,1.0,4.0,72,0.00,,,0.00,0,Custom,2013-01-13 08:48:00,
2013-01-13 02:53:00,17.8,10.0,30.05,North,360,0.0,3.0,71,0.00,,,0.00,0,Custom,2013-01-13 08:53:00,
2013-01-13 02:58:00,17.7,10.0,30.04,North,0,2.0,5.0,72,0.00,,,0.00,0,Custom,2013-01-13 08:58:00,
2013-01-13 03:03:00,17.3,10.0,30.03,North,0,0.0,3.0,72,0.00,,,0.00,0,Custom,2013-01-13 09:03:00,
2013-01-13 03:08:00,17.0,10.0,30.03,North,0,0.0,1.0,73,0.00,,,0.00,0,Custom,2013-01-13 09:08:00,
2013-01-13 03:13:00,17.2,10.0,30.03,North,0,0.0,3.0,73,0.00,,,0.00,0,Custom,2013-01-13 09:13:00,
2013-01-13 03:18:00,17.1,10.0,30.04,North,354,0.0,4.0,73,0.00,,,0.00,0,Custom,2013-01-13 09:18:00,
2013-01-13 03:23:00,17.1,10.0,30.03,NNW,333,0.0,8.0,73,0.00,,,0.00,0,Custom,2013-01-13 09:23:00,
2013-01-13 03:28:00,17.0,10.0,30.03,WNW,289,0.0,5.0,73,0.00,,,0.00,0,Custom,2013-01-13 09:28:00,
2013-01-13 03:33:00,16.8,10.0,30.03,North,354,0.0,4.0,72,0.00,,,0.00,0,Custom,2013-01-13 09:33:00,
2013-01-13 03:38:00,16.6,10.0,30.04,North,351,0.0,5.0,73,0.00,,,0.00,0,Custom,2013-01-13 09:38:00,
2013-01-13 03:43:00,16.6,10.0,30.04,WNW,283,0.0,4.0,73,0.00,,,0.00,0,Custom,2013-01-13 09:43:00,
2013-01-13 03:48:00,16.7,10.0,30.03,NNW,335,0.0,6.0,74,0.00,,,0.00,0,Custom,2013-01-13 09:48:00,
2013-01-13 03:53:00,16.6,10.0,30.03,WNW,301,3.0,4.0,74,0.00,,,0.00,0,Custom,2013-01-13 09:53:00,
2013-01-13 03:58:00,16.5,10.0,30.04,North,360,1.0,3.0,73,0.00,,,0.00,0,Custom,2013-01-13 09:58:00,
2013-01-13 04:03:00,16.5,9.0,30.05,North,360,0.0,5.0,73,0.00,,,0.00,0,Custom,2013-01-13 10:03:00,
2013-01-13 04:08:00,16.3,10.0,30.05,West,277,0.0,4.0,74,0.00,,,0.00,0,Custom,2013-01-13 10:08:00,
2013-01-13 04:13:00,16.1,9.0,30.05,NNW,339,0.0,3.0,73,0.00,,,0.00,0,Custom,2013-01-13 10:13:00,
2013-01-13 04:18:00,16.0,9.0,30.05,North,360,1.0,6.0,74,0.00,,,0.00,0,Custom,2013-01-13 10:18:00,
2013-01-13 04:23:00,16.0,9.0,30.05,North,354,0.0,4.0,73,0.00,,,0.00,0,Custom,2013-01-13 10:23:00,
2013-01-13 04:28:00,15.9,9.0,30.05,WNW,297,0.0,3.0,73,0.00,,,0.00,0,Custom,2013-01-13 10:28:00,
2013-01-13 04:33:00,15.8,9.0,30.05,NNW,342,3.0,4.0,74,0.00,,,0.00,0,Custom,2013-01-13 10:33:00,
2013-01-13 04:38:00,15.7,9.0,30.05,North,1,0.0,3.0,74,0.00,,,0.00,0,Custom,2013-01-13 10:38:00,
2013-01-13 04:43:00,15.6,9.0,30.05,North,360,0.0,4.0,74,0.00,,,0.00,0,Custom,2013-01-13 10:43:00,
2013-01-13 04:48:00,15.5,9.0,30.05,North,360,0.0,3.0,74,0.00,,,0.00,0,Custom,2013-01-13 10:48:00,
2013-01-13 04:53:00,15.4,9.0,30.06,NNE,25,0.0,5.0,74,0.00,,,0.00,0,Custom,2013-01-13 10:53:00,
2013-01-13 04:58:00,15.4,8.0,30.05,North,0,2.0,3.0,74,0.00,,,0.00,0,Custom,2013-01-13 10:58:00,
2013-01-13 05:03:00,15.4,9.0,30.05,NNE,23,0.0,4.0,74,0.00,,,0.00,0,Custom,2013-01-13 11:03:00,
2013-01-13 05:08:00,15.2,9.0,30.05,NW,308,2.0,4.0,74,0.00,,,0.00,0,Custom,2013-01-13 11:08:00,
2013-01-13 05:13:00,15.2,8.0,30.07,North,359,3.0,5.0,74,0.00,,,0.00,0,Custom,2013-01-13 11:13:00,
2013-01-13 05:18:00,15.2,9.0,30.06,North,0,0.0,4.0,75,0.00,,,0.00,0,Custom,2013-01-13 11:18:00,
2013-01-13 05:23:00,15.0,8.0,30.06,North,355,0.0,3.0,75,0.00,,,0.00,0,Custom,2013-01-13 11:23:00,
2013-01-13 05:28:00,14.9,8.0,30.08,North,1,0.0,6.0,74,0.00,,,0.00,0,Custom,2013-01-13 11:28:00,
2013-01-13 05:33:00,14.9,8.0,30.08,NNE,20,0.0,4.0,75,0.00,,,0.00,0,Custom,2013-01-13 11:33:00,
2013-01-13 05:38:00,14.7,8.0,30.09,North,2,0.0,3.0,75,0.00,,,0.00,0,Custom,2013-01-13 11:38:00,
2013-01-13 05:43:00,14.7,8.0,30.09,NNW,341,0.0,4.0,74,0.00,,,0.00,0,Custom,2013-01-13 11:43:00,
2013-01-13 05:48:00,14.6,8.0,30.09,NNW,341,0.0,1.0,74,0.00,,,0.00,0,Custom,2013-01-13 11:48:00,
2013-01-13 05:53:00,14.4,8.0,30.09,NNW,341,0.0,1.0,74,0.00,,,0.00,0,Custom,2013-01-13 11:53:00,
2013-01-13 05:58:00,14.2,8.0,30.09,NW,307,0.0,4.0,74,0.00,,,0.00,0,Custom,2013-01-13 11:58:00,
2013-01-13 06:03:00,14.1,7.0,30.10,NW,307,2.0,3.0,73,0.00,,,0.00,0,Custom,2013-01-13 12:03:00,
2013-01-13 06:08:00,13.9,7.0,30.11,North,359,0.0,3.0,73,0.00,,,0.00,0,Custom,2013-01-13 12:08:00,
2013-01-13 06:13:00,13.7,7.0,30.11,North,359,0.0,1.0,73,0.00,,,0.00,0,Custom,2013-01-13 12:13:00,
2013-01-13 06:18:00,13.5,6.0,30.12,North,6,0.0,2.0,72,0.00,,,0.00,0,Custom,2013-01-13 12:18:00,
2013-01-13 06:23:00,13.6,6.0,30.12,North,6,0.0,2.0,72,0.00,,,0.00,0,Custom,2013-01-13 12:23:00,
2013-01-13 06:28:00,13.3,6.0,30.11,North,6,0.0,1.0,73,0.00,,,0.00,0,Custom,2013-01-13 12:28:00,
2013-01-13 06:33:00,13.2,6.0,30.12,North,5,0.0,2.0,73,0.00,,,0.00,0,Custom,2013-01-13 12:33:00,
2013-01-13 06:38:00,13.2,6.0,30.12,North,5,0.0,2.0,73,0.00,,,0.00,0,Custom,2013-01-13 12:38:00,
2013-01-13 06:43:00,13.1,6.0,30.13,North,6,0.0,2.0,74,0.00,,,0.00,0,Custom,2013-01-13 12:43:00,
2013-01-13 06:48:00,12.9,6.0,30.13,North,5,0.0,2.0,74,0.00,,,0.00,0,Custom,2013-01-13 12:48:00,
2013-01-13 06:53:00,12.9,6.0,30.14,North,5,0.0,2.0,74,0.00,,,0.00,0,Custom,2013-01-13 12:53:00,
2013-01-13 06:58:00,12.9,6.0,30.14,North,5,1.0,2.0,75,0.00,,,0.00,0,Custom,2013-01-13 12:58:00,
2013-01-13 07:03:00,12.8,6.0,30.13,North,5,0.0,2.0,74,0.00,,,0.00,0,Custom,2013-01-13 13:03:00,
2013-01-13 07:08:00,12.9,6.0,30.14,NNW,337,2.0,2.0,75,0.00,,,0.00,0,Custom,2013-01-13 13:08:00,
2013-01-13 07:13:00,13.1,7.0,30.13,NNW,329,0.0,5.0,75,0.00,,,0.00,0,Custom,2013-01-13 13:13:00,
2013-01-13 07:18:00,13.1,7.0,30.13,NNW,348,0.0,2.0,75,0.00,,,0.00,0,Custom,2013-01-13 13:18:00,
2013-01-13 07:23:00,13.0,6.0,30.13,North,3,0.0,3.0,75,0.00,,,0.00,0,Custom,2013-01-13 13:23:00,
2013-01-13 07:28:00,13.1,7.0,30.14,North,0,0.0,4.0,75,0.00,,,0.00,0,Custom,2013-01-13 13:28:00,
2013-01-13 07:33:00,12.9,6.0,30.13,WSW,256,3.0,3.0,74,0.00,,,0.00,0,Custom,2013-01-13 13:33:00,
2013-01-13 07:38:00,12.9,6.0,30.14,North,358,2.0,5.0,74,0.00,,,0.00,0,Custom,2013-01-13 13:38:00,
2013-01-13 07:43:00,12.9,6.0,30.14,NNW,345,1.0,2.0,75,0.00,,,0.00,0,Custom,2013-01-13 13:43:00,
2013-01-13 07:48:00,12.9,6.0,30.13,NNE,14,2.0,2.0,74,0.00,,,0.00,10.53,Custom,2013-01-13 13:48:00,
2013-01-13 07:53:00,12.9,6.0,30.13,NNW,337,0.0,3.0,75,0.00,,,0.00,22.23,Custom,2013-01-13 13:53:00,
2013-01-13 07:58:00,13.2,6.0,30.13,West,281,0.0,2.0,74,0.00,,,0.00,32.37,Custom,2013-01-13 13:58:00,
2013-01-13 08:03:00,13.3,7.0,30.13,West,281,0.0,3.0,74,0.00,,,0.00,36.27,Custom,2013-01-13 14:03:00,
2013-01-13 08:08:00,13.6,7.0,30.12,North,355,2.0,2.0,73,0.00,,,0.00,40.17,Custom,2013-01-13 14:08:00,
2013-01-13 08:13:00,13.7,7.0,30.12,North,3,3.0,5.0,73,0.00,,,0.00,51.48,Custom,2013-01-13 14:13:00,
2013-01-13 08:18:00,14.5,7.0,30.12,NNW,336,2.0,4.0,72,0.00,,,0.00,52.65,Custom,2013-01-13 14:18:00,
2013-01-13 08:23:00,14.6,7.0,30.13,NNW,344,0.0,6.0,70,0.00,,,0.00,44.46,Custom,2013-01-13 14:23:00,
2013-01-13 08:28:00,14.5,6.0,30.13,West,279,0.0,5.0,70,0.00,,,0.00,49.14,Custom,2013-01-13 14:28:00,
2013-01-13 08:33:00,15.2,7.0,30.13,North,356,0.0,4.0,69,0.00,,,0.00,53.43,Custom,2013-01-13 14:33:00,
2013-01-13 08:38:00,14.9,6.0,30.14,North,355,0.0,5.0,68,0.00,,,0.00,53.43,Custom,2013-01-13 14:38:00,
2013-01-13 08:43:00,14.5,6.0,30.14,WNW,287,0.0,5.0,69,0.00,,,0.00,58.5,Custom,2013-01-13 14:43:00,
2013-01-13 08:48:00,14.8,7.0,30.14,NW,319,0.0,4.0,70,0.00,,,0.00,63.96,Custom,2013-01-13 14:48:00,
2013-01-13 08:53:00,15.6,8.0,30.14,WNW,283,1.0,3.0,70,0.00,,,0.00,59.67,Custom,2013-01-13 14:53:00,
2013-01-13 08:58:00,15.6,7.0,30.14,ESE,113,0.0,5.0,69,0.00,,,0.00,60.45,Custom,2013-01-13 14:58:00,
2013-01-13 09:03:00,15.8,7.0,30.14,WNW,292,2.0,7.0,68,0.00,,,0.00,63.96,Custom,2013-01-13 15:03:00,
2013-01-13 09:08:00,15.9,7.0,30.14,NW,311,2.0,7.0,69,0.00,,,0.00,79.95,Custom,2013-01-13 15:08:00,
2013-01-13 09:13:00,16.6,8.0,30.14,North,360,0.0,6.0,68,0.00,,,0.00,102.18,Custom,2013-01-13 15:13:00,
2013-01-13 09:18:00,16.8,8.0,30.14,North,6,1.0,6.0,67,0.00,,,0.00,155.22,Custom,2013-01-13 15:18:00,
2013-01-13 09:23:00,18.0,8.0,30.14,WNW,300,7.0,7.0,64,0.00,,,0.00,260.52,Custom,2013-01-13 15:23:00,
2013-01-13 09:28:00,18.6,8.0,30.13,West,270,4.0,7.0,62,0.00,,,0.00,299.91,Custom,2013-01-13 15:28:00,
2013-01-13 09:33:00,18.4,7.0,30.14,WNW,285,4.0,7.0,60,0.00,,,0.00,191.1,Custom,2013-01-13 15:33:00,
2013-01-13 09:38:00,17.8,7.0,30.14,North,357,6.0,8.0,61,0.00,,,0.00,198.9,Custom,2013-01-13 15:38:00,
2013-01-13 09:43:00,17.0,7.0,30.16,WNW,293,2.0,7.0,63,0.00,,,0.00,144.3,Custom,2013-01-13 15:43:00,
2013-01-13 09:48:00,17.0,7.0,30.16,WNW,301,0.0,9.0,64,0.00,,,0.00,144.3,Custom,2013-01-13 15:48:00,
2013-01-13 09:53:00,16.6,7.0,30.16,WNW,283,3.0,9.0,64,0.00,,,0.00,166.14,Custom,2013-01-13 15:53:00,
2013-01-13 09:58:00,16.6,7.0,30.17,WNW,295,2.0,7.0,64,0.00,,,0.00,150.15,Custom,2013-01-13 15:58:00,
2013-01-13 10:03:00,17.6,8.0,30.16,WNW,297,3.0,6.0,65,0.00,,,0.00,251.94,Custom,2013-01-13 16:03:00,
2013-01-13 10:08:00,17.3,7.0,30.17,North,349,1.0,5.0,63,0.00,,,0.00,201.24,Custom,2013-01-13 16:08:00,
2013-01-13 10:13:00,18.4,8.0,30.16,WNW,286,2.0,3.0,62,0.00,,,0.00,326.43,Custom,2013-01-13 16:13:00,
2013-01-13 10:18:00,19.4,8.0,30.16,WNW,299,2.0,7.0,60,0.00,,,0.00,333.84,Custom,2013-01-13 16:18:00,
2013-01-13 10:23:00,19.2,8.0,30.16,NW,310,0.0,7.0,60,0.00,,,0.00,343.2,Custom,2013-01-13 16:23:00,
2013-01-13 10:28:00,19.3,8.0,30.16,NW,312,2.0,4.0,60,0.00,,,0.00,325.65,Custom,2013-01-13 16:28:00,
2013-01-13 10:33:00,20.0,8.0,30.17,WNW,299,0.0,6.0,59,0.00,,,0.00,278.07,Custom,2013-01-13 16:33:00,
2013-01-13 10:38:00,19.4,8.0,30.17,North,358,1.0,6.0,60,0.00,,,0.00,343.59,Custom,2013-01-13 16:38:00,
2013-01-13 10:43:00,19.4,7.0,30.17,WNW,293,3.0,5.0,59,0.00,,,0.00,174.72,Custom,2013-01-13 16:43:00,
2013-01-13 10:48:00,19.7,8.0,30.17,WNW,282,2.0,6.0,61,0.00,,,0.00,196.56,Custom,2013-01-13 16:48:00,
2013-01-13 10:53:00,20.2,9.0,30.17,NNW,340,0.0,3.0,60,0.00,,,0.00,365.82,Custom,2013-01-13 16:53:00,
2013-01-13 10:58:00,20.6,8.0,30.16,WNW,284,4.0,4.0,59,0.00,,,0.00,397.02,Custom,2013-01-13 16:58:00,
2013-01-13 11:03:00,20.3,9.0,30.17,West,269,3.0,5.0,61,0.00,,,0.00,363.09,Custom,2013-01-13 17:03:00,
2013-01-13 11:08:00,20.5,9.0,30.16,WNW,297,0.0,5.0,60,0.00,,,0.00,337.35,Custom,2013-01-13 17:08:00,
2013-01-13 11:13:00,21.3,9.0,30.16,WNW,302,0.0,5.0,58,0.00,,,0.00,418.86,Custom,2013-01-13 17:13:00,
2013-01-13 11:18:00,21.5,9.0,30.15,North,0,0.0,2.0,58,0.00,,,0.00,382.59,Custom,2013-01-13 17:18:00,
2013-01-13 11:23:00,20.6,8.0,30.15,West,267,0.0,5.0,57,0.00,,,0.00,433.68,Custom,2013-01-13 17:23:00,
2013-01-13 11:28:00,21.1,9.0,30.15,North,358,0.0,5.0,59,0.00,,,0.00,436.41,Custom,2013-01-13 17:28:00,
2013-01-13 11:33:00,22.5,10.0,30.15,West,264,3.0,3.0,59,0.00,,,0.00,446.55,Custom,2013-01-13 17:33:00,
2013-01-13 11:38:00,22.4,10.0,30.14,NNW,344,0.0,3.0,57,0.00,,,0.00,450.06,Custom,2013-01-13 17:38:00,
2013-01-13 11:43:00,23.6,10.0,30.14,North,351,0.0,4.0,55,0.00,,,0.00,450.06,Custom,2013-01-13 17:43:00,
2013-01-13 11:48:00,23.6,9.0,30.14,WNW,290,2.0,4.0,54,0.00,,,0.00,458.64,Custom,2013-01-13 17:48:00,
2013-01-13 11:53:00,23.5,10.0,30.14,WNW,297,0.0,5.0,55,0.00,,,0.00,460.2,Custom,2013-01-13 17:53:00,
2013-01-13 11:58:00,24.3,11.0,30.14,North,358,0.0,6.0,56,0.00,,,0.00,460.2,Custom,2013-01-13 17:58:00,
2013-01-13 12:03:00,24.3,10.0,30.14,West,274,3.0,5.0,54,0.00,,,0.00,466.05,Custom,2013-01-13 18:03:00,
2013-01-13 12:08:00,24.0,10.0,30.13,WNW,289,0.0,5.0,53,0.00,,,0.00,467.61,Custom,2013-01-13 18:08:00,
2013-01-13 12:13:00,25.3,10.0,30.13,NW,308,0.0,4.0,53,0.00,,,0.00,469.95,Custom,2013-01-13 18:13:00,
2013-01-13 12:18:00,24.4,10.0,30.13,WNW,285,0.0,5.0,52,0.00,,,0.00,469.95,Custom,2013-01-13 18:18:00,
2013-01-13 12:23:00,25.0,10.0,30.13,WNW,290,0.0,4.0,53,0.00,,,0.00,469.56,Custom,2013-01-13 18:23:00,
2013-01-13 12:28:00,25.3,11.0,30.13,West,271,0.0,5.0,54,0.00,,,0.00,469.56,Custom,2013-01-13 18:28:00,
2013-01-13 12:33:00,25.5,11.0,30.12,NW,317,0.0,6.0,53,0.00,,,0.00,470.34,Custom,2013-01-13 18:33:00,
2013-01-13 12:39:00,26.0,10.0,30.12,WNW,296,2.0,5.0,51,0.00,,,0.00,468.78,Custom,2013-01-13 18:39:00,
2013-01-13 12:44:00,26.0,11.0,30.12,WNW,289,3.0,5.0,52,0.00,,,0.00,466.44,Custom,2013-01-13 18:44:00,
2013-01-13 12:49:00,26.3,11.0,30.13,West,279,0.0,4.0,51,0.00,,,0.00,465.27,Custom,2013-01-13 18:49:00,
2013-01-13 12:54:00,26.5,11.0,30.13,West,270,2.0,5.0,51,0.00,,,0.00,465.27,Custom,2013-01-13 18:54:00,
2013-01-13 12:59:00,26.5,12.0,30.13,WNW,293,2.0,5.0,53,0.00,,,0.00,459.42,Custom,2013-01-13 18:59:00,
2013-01-13 13:04:00,27.2,11.0,30.12,WNW,286,0.0,3.0,51,0.00,,,0.00,457.86,Custom,2013-01-13 19:04:00,
2013-01-13 13:09:00,27.2,12.0,30.13,NNW,347,0.0,4.0,52,0.00,,,0.00,451.23,Custom,2013-01-13 19:09:00,
2013-01-13 13:14:00,27.3,12.0,30.12,North,0,0.0,6.0,53,0.00,,,0.00,450.84,Custom,2013-01-13 19:14:00,
2013-01-13 13:19:00,27.5,11.0,30.12,WNW,284,0.0,5.0,50,0.00,,,0.00,442.26,Custom,2013-01-13 19:19:00,
2013-01-13 13:24:00,27.5,11.0,30.12,West,262,3.0,5.0,50,0.00,,,0.00,441.87,Custom,2013-01-13 19:24:00,
2013-01-13 13:29:00,27.5,11.0,30.12,West,280,2.0,4.0,49,0.00,,,0.00,435.63,Custom,2013-01-13 19:29:00,
2013-01-13 13:34:00,27.4,11.0,30.11,West,268,3.0,5.0,50,0.00,,,0.00,430.56,Custom,2013-01-13 19:34:00,
2013-01-13 13:39:00,28.4,12.0,30.12,WNW,284,0.0,4.0,50,0.00,,,0.00,424.32,Custom,2013-01-13 19:39:00,
2013-01-13 13:44:00,28.2,11.0,30.11,WNW,286,2.0,6.0,48,0.00,,,0.00,418.47,Custom,2013-01-13 19:44:00,
2013-01-13 13:49:00,28.9,12.0,30.12,WNW,301,0.0,3.0,50,0.00,,,0.00,411.45,Custom,2013-01-13 19:49:00,
2013-01-13 13:54:00,29.1,11.0,30.12,WNW,298,5.0,5.0,47,0.00,,,0.00,403.26,Custom,2013-01-13 19:54:00,
2013-01-13 13:59:00,29.6,12.0,30.12,West,272,0.0,5.0,48,0.00,,,0.00,395.46,Custom,2013-01-13 19:59:00,
2013-01-13 14:04:00,29.2,11.0,30.12,North,360,1.0,3.0,46,0.00,,,0.00,387.66,Custom,2013-01-13 20:04:00,
2013-01-13 14:09:00,29.1,12.0,30.12,West,270,0.0,5.0,48,0.00,,,0.00,378.3,Custom,2013-01-13 20:09:00,
2013-01-13 14:14:00,30.3,13.0,30.13,West,275,0.0,3.0,48,0.00,,,0.00,366.99,Custom,2013-01-13 20:14:00,
2013-01-13 14:19:00,29.7,12.0,30.13,WSW,256,6.0,6.0,47,0.00,,,0.00,360.36,Custom,2013-01-13 20:19:00,
2013-01-13 14:24:00,29.4,11.0,30.12,WNW,302,0.0,7.0,46,0.00,,,0.00,348.66,Custom,2013-01-13 20:24:00,
2013-01-13 14:29:00,30.1,12.0,30.12,West,281,5.0,5.0,46,0.00,,,0.00,339.3,Custom,2013-01-13 20:29:00,
2013-01-13 14:34:00,30.0,12.0,30.13,West,281,2.0,4.0,47,0.00,,,0.00,329.16,Custom,2013-01-13 20:34:00,
2013-01-13 14:39:00,30.2,11.0,30.13,WNW,283,2.0,6.0,45,0.00,,,0.00,316.29,Custom,2013-01-13 20:39:00,
2013-01-13 14:44:00,30.0,11.0,30.13,WNW,297,0.0,5.0,46,0.00,,,0.00,292.89,Custom,2013-01-13 20:44:00,
2013-01-13 14:49:00,30.3,13.0,30.13,NNW,342,0.0,5.0,47,0.00,,,0.00,235.95,Custom,2013-01-13 20:49:00,
2013-01-13 14:54:00,31.1,13.0,30.13,NW,317,0.0,2.0,46,0.00,,,0.00,239.85,Custom,2013-01-13 20:54:00,
2013-01-13 14:59:00,29.6,11.0,30.13,NW,315,3.0,3.0,45,0.00,,,0.00,185.25,Custom,2013-01-13 20:59:00,
2013-01-13 15:04:00,29.9,12.0,30.13,West,281,0.0,4.0,47,0.00,,,0.00,167.7,Custom,2013-01-13 21:04:00,
2013-01-13 15:09:00,30.0,12.0,30.13,West,265,0.0,4.0,46,0.00,,,0.00,86.19,Custom,2013-01-13 21:09:00,
2013-01-13 15:14:00,30.1,12.0,30.14,NNW,329,0.0,2.0,47,0.00,,,0.00,215.28,Custom,2013-01-13 21:14:00,
2013-01-13 15:19:00,29.8,11.0,30.14,NW,311,0.0,3.0,46,0.00,,,0.00,124.41,Custom,2013-01-13 21:19:00,
2013-01-13 15:24:00,30.1,11.0,30.14,WNW,293,3.0,3.0,45,0.00,,,0.00,85.8,Custom,2013-01-13 21:24:00,
2013-01-13 15:29:00,30.4,11.0,30.14,NNW,331,0.0,4.0,43,0.00,,,0.00,120.51,Custom,2013-01-13 21:29:00,
2013-01-13 15:34:00,30.5,10.0,30.14,WNW,296,0.0,3.0,43,0.00,,,0.00,124.41,Custom,2013-01-13 21:34:00,
2013-01-13 15:39:00,29.7,10.0,30.14,NW,319,0.0,4.0,43,0.00,,,0.00,72.54,Custom,2013-01-13 21:39:00,
2013-01-13 15:44:00,30.7,11.0,30.14,North,352,0.0,2.0,44,0.00,,,0.00,114.66,Custom,2013-01-13 21:44:00,
2013-01-13 15:49:00,29.8,10.0,30.14,WNW,283,0.0,4.0,42,0.00,,,0.00,95.16,Custom,2013-01-13 21:49:00,
2013-01-13 15:54:00,29.4,10.0,30.14,WNW,288,0.0,4.0,44,0.00,,,0.00,86.19,Custom,2013-01-13 21:54:00,
2013-01-13 15:59:00,30.1,11.0,30.14,WNW,282,3.0,3.0,44,0.00,,,0.00,83.85,Custom,2013-01-13 21:59:00,
2013-01-13 16:04:00,29.1,10.0,30.15,WNW,285,0.0,5.0,45,0.00,,,0.00,68.64,Custom,2013-01-13 22:04:00,
2013-01-13 16:09:00,29.3,10.0,30.15,WNW,284,0.0,2.0,44,0.00,,,0.00,37.05,Custom,2013-01-13 22:09:00,
2013-01-13 16:14:00,28.6,10.0,30.15,WNW,284,2.0,2.0,45,0.00,,,0.00,21.84,Custom,2013-01-13 22:14:00,
2013-01-13 16:19:00,27.5,9.0,30.16,WNW,285,0.0,4.0,46,0.00,,,0.00,19.89,Custom,2013-01-13 22:19:00,
2013-01-13 16:24:00,27.0,10.0,30.16,WNW,286,0.0,2.0,47,0.00,,,0.00,15.6,Custom,2013-01-13 22:24:00,
2013-01-13 16:29:00,26.7,10.0,30.16,WNW,284,4.0,4.0,48,0.00,,,0.00,14.82,Custom,2013-01-13 22:29:00,
2013-01-13 16:34:00,26.4,10.0,30.16,WNW,284,0.0,4.0,49,0.00,,,0.00,14.43,Custom,2013-01-13 22:34:00,
2013-01-13 16:39:00,26.2,10.0,30.17,WNW,287,2.0,3.0,49,0.00,,,0.00,13.26,Custom,2013-01-13 22:39:00,
2013-01-13 16:44:00,25.8,9.0,30.16,NW,307,0.0,4.0,49,0.00,,,0.00,12.48,Custom,2013-01-13 22:44:00,
2013-01-13 16:49:00,25.7,10.0,30.17,WNW,285,0.0,3.0,50,0.00,,,0.00,10.92,Custom,2013-01-13 22:49:00,
2013-01-13 16:54:00,25.5,10.0,30.17,WNW,286,0.0,3.0,50,0.00,,,0.00,10.14,Custom,2013-01-13 22:54:00,
2013-01-13 16:59:00,25.1,9.0,30.18,WNW,286,0.0,2.0,50,0.00,,,0.00,8.58,Custom,2013-01-13 22:59:00,
2013-01-13 17:04:00,24.8,9.0,30.18,WNW,285,0.0,2.0,50,0.00,,,0.00,7.8,Custom,2013-01-13 23:04:00,
2013-01-13 17:09:00,24.6,9.0,30.18,NNW,340,2.0,2.0,51,0.00,,,0.00,0,Custom,2013-01-13 23:09:00,
2013-01-13 17:14:00,24.3,9.0,30.18,NNW,345,0.0,2.0,51,0.00,,,0.00,0,Custom,2013-01-13 23:14:00,
2013-01-13 17:19:00,23.8,9.0,30.19,NNW,344,0.0,0.0,52,0.00,,,0.00,0,Custom,2013-01-13 23:19:00,
2013-01-13 17:24:00,23.6,8.0,30.19,NNW,342,0.0,2.0,52,0.00,,,0.00,0,Custom,2013-01-13 23:24:00,
2013-01-13 17:29:00,23.5,8.0,30.19,North,359,0.0,1.0,52,0.00,,,0.00,0,Custom,2013-01-13 23:29:00,
2013-01-13 17:35:00,22.8,8.0,30.19,North,359,0.0,0.0,53,0.00,,,0.00,0,Custom,2013-01-13 23:35:00,
2013-01-13 17:40:00,22.5,8.0,30.19,North,359,0.0,0.0,54,0.00,,,0.00,0,Custom,2013-01-13 23:40:00,
2013-01-13 17:45:00,22.6,8.0,30.19,North,359,0.0,0.0,54,0.00,,,0.00,0,Custom,2013-01-13 23:45:00,
2013-01-13 17:50:00,22.3,8.0,30.19,North,359,0.0,0.0,54,0.00,,,0.00,0,Custom,2013-01-13 23:50:00,
2013-01-13 17:55:00,22.5,8.0,30.19,North,360,0.0,2.0,53,0.00,,,0.00,0,Custom,2013-01-13 23:55:00,
2013-01-13 18:00:00,22.2,8.0,30.19,North,360,0.0,0.0,54,0.00,,,0.00,0,Custom,2013-01-14 00:00:00,
2013-01-13 18:05:00,21.6,8.0,30.19,North,360,0.0,0.0,54,0.00,,,0.00,0,Custom,2013-01-14 00:05:00,
2013-01-13 18:10:00,21.2,8.0,30.19,North,360,0.0,0.0,56,0.00,,,0.00,0,Custom,2013-01-14 00:10:00,
2013-01-13 18:15:00,21.2,8.0,30.19,North,360,0.0,0.0,57,0.00,,,0.00,0,Custom,2013-01-14 00:15:00,
2013-01-13 18:20:00,20.7,8.0,30.20,North,360,0.0,0.0,57,0.00,,,0.00,0,Custom,2013-01-14 00:20:00,
2013-01-13 18:25:00,21.1,8.0,30.21,North,360,0.0,0.0,57,0.00,,,0.00,0,Custom,2013-01-14 00:25:00,
2013-01-13 18:30:00,20.6,8.0,30.20,North,360,0.0,0.0,58,0.00,,,0.00,0,Custom,2013-01-14 00:30:00,
2013-01-13 18:35:00,20.7,8.0,30.21,North,360,0.0,0.0,58,0.00,,,0.00,0,Custom,2013-01-14 00:35:00,
2013-01-13 18:40:00,20.5,8.0,30.21,North,360,0.0,0.0,58,0.00,,,0.00,0,Custom,2013-01-14 00:40:00,
2013-01-13 18:45:00,20.3,8.0,30.21,North,360,0.0,0.0,58,0.00,,,0.00,0,Custom,2013-01-14 00:45:00,
2013-01-13 18:50:00,20.0,8.0,30.21,North,360,0.0,0.0,59,0.00,,,0.00,0,Custom,2013-01-14 00:50:00,
2013-01-13 18:55:00,19.6,8.0,30.21,North,360,0.0,0.0,59,0.00,,,0.00,0,Custom,2013-01-14 00:55:00,
2013-01-13 19:00:00,19.5,8.0,30.22,North,360,0.0,0.0,60,0.00,,,0.00,0,Custom,2013-01-14 01:00:00,
2013-01-13 19:05:00,19.1,8.0,30.22,North,360,0.0,0.0,61,0.00,,,0.00,0,Custom,2013-01-14 01:05:00,
2013-01-13 19:10:00,18.8,8.0,30.22,North,360,0.0,0.0,61,0.00,,,0.00,0,Custom,2013-01-14 01:10:00,
2013-01-13 19:15:00,18.6,8.0,30.22,North,360,0.0,0.0,61,0.00,,,0.00,0,Custom,2013-01-14 01:15:00,
2013-01-13 19:20:00,18.5,8.0,30.22,North,360,0.0,0.0,62,0.00,,,0.00,0,Custom,2013-01-14 01:20:00,
2013-01-13 19:25:00,18.6,8.0,30.23,North,360,0.0,0.0,63,0.00,,,0.00,0,Custom,2013-01-14 01:25:00,
2013-01-13 19:30:00,18.4,8.0,30.22,North,360,0.0,0.0,62,0.00,,,0.00,0,Custom,2013-01-14 01:30:00,
2013-01-13 19:35:00,18.6,8.0,30.23,North,360,0.0,0.0,63,0.00,,,0.00,0,Custom,2013-01-14 01:35:00,
2013-01-13 19:40:00,18.7,8.0,30.22,North,360,0.0,0.0,63,0.00,,,0.00,0,Custom,2013-01-14 01:40:00,
2013-01-13 19:45:00,18.6,8.0,30.22,North,360,0.0,0.0,63,0.00,,,0.00,0,Custom,2013-01-14 01:45:00,
2013-01-13 19:50:00,18.5,8.0,30.22,North,360,0.0,0.0,63,0.00,,,0.00,0,Custom,2013-01-14 01:50:00,
2013-01-13 19:55:00,18.4,8.0,30.22,North,360,0.0,0.0,62,0.00,,,0.00,0,Custom,2013-01-14 01:55:00,
2013-01-13 20:00:00,18.0,7.0,30.22,North,360,0.0,0.0,63,0.00,,,0.00,0,Custom,2013-01-14 02:00:00,
2013-01-13 20:05:00,17.7,7.0,30.23,North,360,0.0,0.0,63,0.00,,,0.00,0,Custom,2013-01-14 02:05:00,
2013-01-13 20:10:00,17.5,7.0,30.23,North,360,0.0,0.0,63,0.00,,,0.00,0,Custom,2013-01-14 02:10:00,
2013-01-13 20:15:00,17.0,7.0,30.23,North,360,0.0,0.0,64,0.00,,,0.00,0,Custom,2013-01-14 02:15:00,
2013-01-13 20:20:00,16.9,7.0,30.23,North,360,0.0,0.0,65,0.00,,,0.00,0,Custom,2013-01-14 02:20:00,
2013-01-13 20:25:00,17.4,8.0,30.23,North,360,0.0,0.0,65,0.00,,,0.00,0,Custom,2013-01-14 02:25:00,
2013-01-13 20:30:00,17.3,8.0,30.23,North,360,0.0,0.0,65,0.00,,,0.00,0,Custom,2013-01-14 02:30:00,
2013-01-13 20:35:00,17.0,7.0,30.23,North,360,0.0,0.0,65,0.00,,,0.00,0,Custom,2013-01-14 02:35:00,
2013-01-13 20:40:00,17.0,7.0,30.23,North,360,0.0,0.0,65,0.00,,,0.00,0,Custom,2013-01-14 02:40:00,
2013-01-13 20:45:00,16.5,7.0,30.23,North,360,0.0,0.0,66,0.00,,,0.00,0,Custom,2013-01-14 02:45:00,
2013-01-13 20:50:00,16.2,7.0,30.24,North,360,0.0,0.0,66,0.00,,,0.00,0,Custom,2013-01-14 02:50:00,
2013-01-13 20:55:00,15.6,7.0,30.24,North,360,0.0,0.0,67,0.00,,,0.00,0,Custom,2013-01-14 02:55:00,
2013-01-13 21:00:00,15.2,7.0,30.24,North,360,0.0,0.0,71,0.00,,,0.00,0,Custom,2013-01-14 03:00:00,
2013-01-13 21:05:00,14.5,7.0,30.24,North,360,0.0,0.0,72,0.00,,,0.00,0,Custom,2013-01-14 03:05:00,
2013-01-13 21:10:00,14.4,8.0,30.24,North,360,0.0,0.0,74,0.00,,,0.00,0,Custom,2013-01-14 03:10:00,
2013-01-13 21:15:00,14.1,7.0,30.25,North,360,0.0,0.0,74,0.00,,,0.00,0,Custom,2013-01-14 03:15:00,
2013-01-13 21:20:00,13.8,7.0,30.25,North,360,0.0,0.0,74,0.00,,,0.00,0,Custom,2013-01-14 03:20:00,
2013-01-13 21:25:00,13.7,7.0,30.25,North,360,0.0,0.0,75,0.00,,,0.00,0,Custom,2013-01-14 03:25:00,
2013-01-13 21:30:00,13.7,8.0,30.25,North,360,0.0,0.0,76,0.00,,,0.00,0,Custom,2013-01-14 03:30:00,
2013-01-13 21:35:00,13.6,8.0,30.25,North,360,0.0,0.0,77,0.00,,,0.00,0,Custom,2013-01-14 03:35:00,
2013-01-13 21:40:00,13.6,8.0,30.26,North,360,0.0,0.0,77,0.00,,,0.00,0,Custom,2013-01-14 03:40:00,
2013-01-13 21:45:00,13.3,7.0,30.26,North,360,0.0,0.0,77,0.00,,,0.00,0,Custom,2013-01-14 03:45:00,
2013-01-13 21:50:00,13.4,8.0,30.26,North,360,0.0,0.0,79,0.00,,,0.00,0,Custom,2013-01-14 03:50:00,
2013-01-13 21:55:00,13.5,8.0,30.26,North,360,0.0,0.0,80,0.00,,,0.00,0,Custom,2013-01-14 03:55:00,
2013-01-13 22:00:00,14.0,9.0,30.25,North,360,0.0,0.0,81,0.00,,,0.00,0,Custom,2013-01-14 04:00:00,
2013-01-13 22:05:00,14.3,9.0,30.25,North,360,0.0,0.0,79,0.00,,,0.00,0,Custom,2013-01-14 04:05:00,
2013-01-13 22:10:00,14.1,9.0,30.25,North,360,0.0,0.0,78,0.00,,,0.00,0,Custom,2013-01-14 04:10:00,
2013-01-13 22:15:00,13.9,8.0,30.26,North,360,0.0,0.0,77,0.00,,,0.00,0,Custom,2013-01-14 04:15:00,
2013-01-13 22:20:00,13.8,8.0,30.26,North,360,0.0,0.0,77,0.00,,,0.00,0,Custom,2013-01-14 04:20:00,
2013-01-13 22:25:00,14.2,8.0,30.26,North,360,0.0,0.0,75,0.00,,,0.00,0,Custom,2013-01-14 04:25:00,
2013-01-13 22:30:00,15.0,8.0,30.26,North,360,0.0,0.0,74,0.00,,,0.00,0,Custom,2013-01-14 04:30:00,
2013-01-13 22:35:00,15.1,8.0,30.26,North,360,0.0,0.0,73,0.00,,,0.00,0,Custom,2013-01-14 04:35:00,
2013-01-13 22:40:00,15.3,8.0,30.25,North,360,0.0,0.0,72,0.00,,,0.00,0,Custom,2013-01-14 04:40:00,
2013-01-13 22:45:00,15.9,8.0,30.26,North,360,0.0,0.0,71,0.00,,,0.00,0,Custom,2013-01-14 04:45:00,
2013-01-13 22:50:00,15.9,8.0,30.27,North,360,0.0,0.0,70,0.00,,,0.00,0,Custom,2013-01-14 04:50:00,
2013-01-13 22:55:00,15.8,8.0,30.26,North,360,0.0,0.0,69,0.00,,,0.00,0,Custom,2013-01-14 04:55:00,
2013-01-13 23:00:00,15.4,8.0,30.26,North,360,0.0,0.0,70,0.00,,,0.00,0,Custom,2013-01-14 05:00:00,
2013-01-13 23:02:00,15.4,8.0,30.26,North,360,0.0,0.0,70,0.00,,,0.00,0,Custom,2013-01-14 05:02:00,
2013-01-13 23:03:00,15.4,8.0,30.26,North,360,0.0,0.0,70,0.00,,,0.00,0,Custom,2013-01-14 05:03:00,
2013-01-13 23:08:00,15.4,8.0,30.28,North,360,0.0,0.0,71,0.00,,,0.00,0,Custom,2013-01-14 05:08:00,
2013-01-13 23:13:00,15.2,7.0,30.28,North,360,0.0,0.0,71,0.00,,,0.00,0,Custom,2013-01-14 05:13:00,
2013-01-13 23:18:00,15.0,7.0,30.28,North,360,0.0,0.0,71,0.00,,,0.00,0,Custom,2013-01-14 05:18:00,
2013-01-13 23:23:00,15.0,7.0,30.28,North,360,0.0,0.0,71,0.00,,,0.00,0,Custom,2013-01-14 05:23:00,
2013-01-13 23:28:00,14.9,7.0,30.28,North,360,0.0,0.0,70,0.00,,,0.00,0,Custom,2013-01-14 05:28:00,
2013-01-13 23:33:00,15.0,7.0,30.28,North,360,0.0,0.0,71,0.00,,,0.00,0,Custom,2013-01-14 05:33:00,
2013-01-13 23:38:00,15.2,7.0,30.28,North,360,0.0,0.0,70,0.00,,,0.00,0,Custom,2013-01-14 05:38:00,
2013-01-13 23:43:00,14.9,7.0,30.28,North,360,0.0,0.0,70,0.00,,,0.00,0,Custom,2013-01-14 05:43:00,
2013-01-13 23:48:00,14.6,7.0,30.28,North,360,0.0,0.0,71,0.00,,,0.00,0,Custom,2013-01-14 05:48:00,
2013-01-13 23:53:00,14.3,6.0,30.29,North,360,0.0,0.0,71,0.00,,,0.00,0,Custom,2013-01-14 05:53:00,
2013-01-13 23:58:00,14.3,7.0,30.29,North,360,0.0,0.0,72,0.00,,,0.00,0,Custom,2013-01-14 05:58:00,